Location: High Point State Park
(41.2941°N, 74.6906°W)
Time: 05:18:09
(UTC-05:00)

Hubble Space Telescope - Visible Passes

Search period start: 29 January 2015 00:00
Search period end: 08 February 2015 00:00
Orbit: 544 x 548 km, 28.5° (Epoch: 27 January)

Date Brightness Start Highest point End Pass type
(mag) Time Alt. Az. Time Alt. Az. Time Alt. Az.
30 Jan 3.4 18:08:00 10° S 18:08:14 10° SSE 18:08:32 10° SSE visible
30 Jan 3.6 19:46:37 10° SSW 19:47:07 11° SSW 19:47:07 11° SSW visible
31 Jan 3.3 17:58:44 10° S 18:00:06 11° S 18:01:31 10° SSE visible
31 Jan 3.4 19:38:31 10° SW 19:39:40 13° SSW 19:39:40 13° SSW visible
01 Feb 3.3 17:50:10 10° SSW 17:51:59 13° S 17:53:49 10° SE visible
01 Feb 3.3 19:30:31 10° SW 19:32:13 13° S 19:32:13 13° S visible
02 Feb 3.3 19:22:38 10° SSW 19:24:26 12° S 19:24:49 12° S visible
03 Feb 3.4 19:14:55 10° SSW 19:16:17 11° S 19:17:26 10° S visible
